CHINASAT-6E

导读 | 星芒AI

CHINASAT-6E 是中国自主研发的一颗通信广播卫星,由中国航天科技集团研制,于2023年成功发射。该卫星定点于东经134度轨道位置,主要用于提供广播电视传输、应急通信和公共通信服务。采用东方红四号增强型平台,具有高功率、高承载能力和长寿命特点,可有效提升中国西部及偏远地区的通信覆盖能力,对促进信息公平和国家通信基础设施建设具有重要意义。

基本信息
目录编号:
58253
目录名称:
CHINASAT-6E
国际标识:
2023-172A
轨道中心:
EARTH
卫星名称:
CHINASAT-6E
卫星全名:
--
卫星状态:
在轨 (已飞行723 天)
发射日期:
2023-11-09 UTC
国别 :
中国 (CN)
星等 :
--
轨道信息
数据来源 国际轨道数据 AOE轨道数据
星历时间 2025-11-01T04:21:59+0800
22小时前
查看轨道信息
2025-11-02T01:00:00+0800
2小时前
查看轨道信息
半长轴 42163.915km 42164.027km
偏心率 0.0002852 0.0002723
轨道倾角 0.018° 0.012°
近地点辐角 77.638° 76.784°
升交点赤经 230.053° 224.622°
平近点角 153.727° 110.375°
近地点 35773.754km 35774.41km
远地点 35797.806km 35797.374km
周期 1436.055分钟 1436.061分钟
每日圈数 1.002747 1.002743
详细信息
使用方式:
暂无
2D轨道图
3D轨道图
轨道高度分析图
轨道倾角分析图
轨道综合分析图
查看轨道综合分析图